Find Starlink 37320

NORAD ID: 68712 Int'l Des: 2026-081 Owner: SPXS Country: US Constellation: starlink operational
LEOCIRCULAR

Live Position

Loading 3D Globe...

About Starlink 37320

Description loading...

Upcoming Passes

Passes for default location (London). Set your location on the main map for personalized predictions.

Altitude History

Loading altitude history...

Two-Line Element Set

1 68712C 26081N 26105.38243056 .00624420 00000+0 80543-3 0 1055
2 68712 53.1627 238.0040 0007333 303.1819 8.0123 16.06064749 16
Epoch: Apr 15, 2026 • Age: 16 hours

Current Status

Altitude 260.0 km
Velocity 7.75 km/s
Sub-Earth Point -30.31°S, 20.25°W
Launch Date Apr 14, 2026
Age 1 days
Type internet

Technical Details

Classification Payload
Mass 575.00 kg
Dry Mass 530.00 kg
Total Mass 575.00 kg
Length 0.30 m
Diameter 4.10 m
Span 29.00 m
Shape Box + pan
Manufacturer SPXS
Bus Type Starlink V2MO
Phase Status In Orbit
Owner/State SPXS/US

Most Searched